{"data":{"norad_id":58250,"epoch":"2026-09-20T08:36:04.200480Z","epoch_age_seconds":155885,"freshness":"FRESH","line1":"1 58250U 23171W   26263.35838195  .00058646  00000+0  15621-2 0  9990","line2":"2 58250  42.9977 261.7484 0008254  98.0731 262.1061 15.37333388159556","mean_motion":15.37333388,"eccentricity":0.0008254,"inclination_deg":42.9977,"raan_deg":261.7484,"arg_perigee_deg":98.0731,"mean_anomaly_deg":262.1061,"bstar":0.0015621,"rev_number":15955,"period_min":93.668687042137,"perigee_km":448.35921460665,"apogee_km":459.63770382273,"semimajor_km":6832.1354592147,"source":"CELESTRAK","updated_at":"2026-09-21T09:00:33.840152Z"}}